$DATE,$TIME,DM0600B,DM0602B,DM0604B,DM0614B,DM0616B,DM0618B,DM0624B,DM0628B,DM0630B,DM0634B,DM0606B,DM0608B,DM0610B
07/05/94,00:00:00,0,0,0,0,0,0,0,58,25,0,36,36,27
07/05/94,00:05:00,0,0,0,0,0,0,0,58,25,0,24,24,32
07/05/94,00:10:00,0,0,0,0,0,0,0,58,25,0,36,34,22
07/05/94,00:15:00,0,0,0,0,0,0,0,57,25,0,23,27,29
07/05/94,00:20:00,0,0,0,0,0,0,0,58,25,0,33,32,32
07/05/94,00:25:00,0,0,0,0,0,0,0,58,26,0,27,31,21
07/05/94,00:30:00,0,0,0,0,0,0,0,58,25,0,31,29,34
07/05/94,00:35:00,0,0,0,0,0,0,0,58,25,0,28,36,28
07/05/94,00:40:00,0,0,0,0,0,0,0,58,25,0,29,27,22
07/05/94,00:45:00,0,0,0,0,0,0,0,58,25,0,32,38,33
07/05/94,00:50:00,0,0,0,0,0,0,0,58,25,0,26,24,27
07/05/94,00:55:00,0,0,0,0,0,0,0,58,25,0,35,38,25
07/05/94,01:00:00,0,0,0,0,0,0,0,58,25,0,24,23,34
07/05/94,01:05:00,0,0,0,0,0,0,0,58,25,0,36,35,22
07/05/94,01:10:00,0,0,0,0,0,0,0,57,54,0,23,26,27
07/05/94,01:15:00,0,0,0,0,0,0,0,58,25,0,33,31,32
07/05/94,01:20:00,0,0,0,0,0,0,0,58,25,0,25,32,21
07/05/94,01:25:00,0,0,0,0,0,0,0,58,25,0,31,29,33
07/05/94,01:30:00,0,0,0,0,0,0,0,57,25,0,27,37,27
07/05/94,01:35:00,0,0,0,0,0,0,0,58,25,0,30,25,24
07/05/94,01:40:00,0,0,0,0,0,0,0,57,25,0,31,38,33
07/05/94,01:45:00,0,0,0,0,0,0,0,58,25,0,27,25,27
07/05/94,01:50:00,0,0,0,0,0,0,0,58,25,0,35,36,26
07/05/94,01:55:00,0,0,0,0,0,0,0,58,54,0,24,25,32
07/05/94,02:00:00,0,0,0,0,0,0,0,58,25,0,37,33,22
07/05/94,02:05:00,0,0,0,0,0,0,0,58,25,0,23,28,29
07/05/94,02:10:00,0,0,0,0,0,0,0,58,25,0,35,30,32
07/05/94,02:15:00,0,0,0,0,0,0,0,58,25,0,24,34,21
07/05/94,02:20:00,0,0,0,0,0,0,0,58,25,0,33,28,33
07/05/94,02:25:00,0,0,0,0,0,0,0,58,25,0,26,37,26
07/05/94,02:30:00,0,0,0,0,0,0,0,57,25,0,31,26,23
07/05/94,02:35:00,0,0,0,0,0,0,0,57,25,0,30,38,33
07/05/94,02:40:00,0,0,0,0,0,0,0,58,38,0,27,23,25
07/05/94,02:45:00,0,0,0,0,0,0,0,58,25,0,34,36,27
07/05/94,02:50:00,0,0,0,0,0,0,0,58,25,0,26,24,32
07/05/94,02:55:00,0,0,0,0,0,0,0,58,25,0,36,33,23
07/05/94,03:00:00,0,0,0,0,0,0,0,58,25,0,24,31,30
07/05/94,03:05:00,0,0,0,0,0,0,0,57,25,0,36,28,31
07/05/94,03:10:00,0,0,0,0,0,0,0,58,25,0,24,36,21
07/05/94,03:15:00,0,0,0,0,0,0,0,58,25,0,34,26,33
07/05/94,03:20:00,0,0,0,0,0,0,0,58,25,0,25,38,26
07/05/94,03:25:00,0,0,0,0,0,0,0,58,39,0,32,23,25
07/05/94,03:30:00,0,0,0,0,0,0,0,58,25,0,28,36,33
07/05/94,03:35:00,0,0,0,0,0,0,0,58,25,0,29,26,26
07/05/94,03:40:00,0,0,0,0,0,0,0,57,25,0,32,32,26
07/05/94,03:45:00,0,0,0,0,0,0,0,58,25,0,28,31,33
07/05/94,03:50:00,0,0,0,0,0,0,0,58,25,0,33,28,23
07/05/94,03:55:00,8,0,9,0,0,0,0,57,25,0,26,37,29
07/05/94,04:00:00,0,0,0,0,0,0,0,58,25,0,35,24,29
07/05/94,04:05:00,0,0,0,0,0,0,0,58,25,0,24,38,21
07/05/94,04:10:00,0,0,0,0,0,0,0,58,38,0,35,23,32
07/05/94,04:15:00,0,0,0,0,0,0,0,58,25,0,24,33,28
07/05/94,04:20:00,0,0,0,0,0,0,0,58,25,0,34,29,24
07/05/94,04:25:00,0,0,0,0,0,0,0,58,25,0,25,29,34
07/05/94,04:30:00,5,0,2,0,0,0,0,57,25,0,34,35,22
07/05/94,04:35:00,0,0,0,0,0,0,0,58,25,0,24,25,28
07/05/94,04:40:00,4,0,0,0,0,0,0,58,25,0,35,38,32
07/05/94,04:45:00,3,0,5,0,0,0,0,58,25,0,22,21,21
07/05/94,04:50:00,0,0,0,0,0,0,0,57,25,0,33,34,29
07/05/94,04:55:00,1,0,2,0,0,0,0,57,31,0,23,25,25
07/05/94,05:00:00,0,0,0,0,0,0,0,58,25,0,32,31,23
07/05/94,05:05:00,1,0,1,0,0,0,0,58,25,0,24,29,32
07/05/94,05:10:00,0,0,0,0,0,0,0,58,25,0,29,28,25
07/05/94,05:15:00,0,0,0,0,0,0,0,58,25,0,29,36,24
07/05/94,05:20:00,0,0,0,0,0,0,0,58,25,0,27,25,32
07/05/94,05:25:00,0,0,0,0,0,0,0,58,25,0,30,37,20
07/05/94,05:30:00,0,0,0,0,0,0,0,58,25,0,26,23,32
07/05/94,05:35:00,0,0,0,0,0,0,0,58,25,0,34,35,26
07/05/94,05:40:00,0,0,0,0,0,0,0,58,39,0,24,24,22
07/05/94,05:45:00,0,0,0,0,0,0,0,58,25,0,36,32,33
07/05/94,05:50:00,0,0,0,0,0,0,0,58,25,0,23,28,25
07/05/94,05:55:00,0,0,0,0,0,0,0,58,25,0,34,30,27
07/05/94,06:00:00,5,0,4,0,0,0,0,57,25,0,23,35,32
07/05/94,06:05:00,3,0,8,0,0,0,0,58,25,0,32,25,23
07/05/94,06:10:00,6,0,9,0,0,0,0,58,25,0,25,35,24
07/05/94,06:15:00,10,0,8,0,0,0,0,57,25,0,27,22,28
07/05/94,06:20:00,1,0,1,0,0,0,0,58,25,0,27,35,19
07/05/94,06:25:00,15,0,14,0,0,0,0,57,29,0,26,21,28
07/05/94,06:30:00,10,0,25,0,0,0,0,57,25,0,28,30,21
07/05/94,06:35:00,6,0,20,0,0,0,0,58,25,0,23,25,23
07/05/94,06:40:00,0,0,13,0,0,0,0,57,25,0,32,27,28
07/05/94,06:45:00,17,0,26,0,0,0,0,57,25,0,21,30,18
07/05/94,06:50:00,15,0,26,0,0,0,0,57,25,0,31,25,30
07/05/94,06:55:00,0,0,22,0,0,0,0,58,25,0,22,35,21
07/05/94,07:00:00,3,0,18,0,0,0,0,57,25,0,31,23,25
07/05/94,07:05:00,1,0,18,0,0,0,0,57,25,0,23,36,29
07/05/94,07:10:00,1,0,18,0,0,0,0,58,40,0,30,22,20
07/05/94,07:15:00,0,0,16,0,0,0,0,57,25,0,27,32,31
07/05/94,07:20:00,11,0,19,0,0,0,0,58,25,0,27,27,26
07/05/94,07:25:00,17,0,28,0,0,0,0,58,25,0,30,29,22
07/05/94,07:30:00,19,0,0,0,0,0,0,58,25,0,24,32,30
07/05/94,07:35:00,9,0,1,0,0,0,0,58,25,0,31,24,22
07/05/94,07:40:00,6,0,0,0,0,0,0,58,25,0,24,36,25
07/05/94,07:45:00,0,1,0,0,0,0,0,58,25,0,34,22,29
07/05/94,07:50:00,0,0,4,0,0,0,0,58,25,0,23,33,20
07/05/94,07:55:00,0,10,0,0,0,0,0,58,39,0,34,28,30
07/05/94,08:00:00,0,0,2,0,0,0,0,58,25,0,24,28,28
07/05/94,08:05:00,0,0,0,0,0,0,0,58,25,0,35,35,22
07/05/94,08:10:00,0,0,0,0,0,0,0,58,25,0,23,24,33
07/05/94,08:15:00,0,0,0,0,0,0,0,58,25,0,36,38,21
07/05/94,08:20:00,0,0,0,0,0,0,0,57,42,0,23,22,27
07/05/94,08:25:00,0,0,0,0,0,0,0,58,25,0,34,34,33
07/05/94,08:30:00,0,0,0,0,0,0,0,58,25,0,25,27,21
07/05/94,08:35:00,0,0,0,0,0,0,0,58,25,0,32,31,34
07/05/94,08:40:00,0,0,0,0,0,0,0,58,43,0,26,32,26
07/05/94,08:45:00,1,0,22,0,0,0,0,58,25,0,30,28,26
07/05/94,08:50:00,0,0,11,0,0,0,0,58,25,0,29,37,32
07/05/94,08:55:00,0,0,14,0,0,0,0,58,25,0,27,24,23
07/05/94,09:00:00,0,0,0,0,0,0,0,58,25,0,33,38,28
07/05/94,09:05:00,0,0,13,0,0,0,0,58,25,0,25,23,30
07/05/94,09:10:00,0,0,0,0,0,0,0,58,25,0,36,34,22
07/05/94,09:15:00,0,0,0,0,0,0,0,58,25,0,23,27,34
07/05/94,09:20:00,0,0,0,0,0,0,0,58,25,0,35,31,26
07/05/94,09:25:00,0,0,14,0,0,0,0,58,25,0,25,34,24
07/05/94,09:30:00,0,0,0,0,0,0,0,58,25,0,32,27,34
07/05/94,09:35:00,3,0,20,0,0,0,0,58,25,0,26,39,22
07/05/94,09:40:00,0,0,15,0,0,0,0,58,25,0,30,23,33
07/05/94,09:45:00,9,0,21,0,0,0,0,58,25,0,31,35,28
07/05/94,09:50:00,7,0,19,0,0,0,0,58,25,0,26,24,22
07/05/94,09:55:00,1,0,17,0,0,0,0,58,25,0,35,32,33
07/05/94,10:00:00,0,0,16,0,0,0,0,58,25,0,24,30,24
07/05/94,10:05:00,0,0,0,0,0,0,0,58,25,0,36,29,27
07/05/94,10:10:00,0,0,0,0,0,0,0,58,25,0,23,37,31
07/05/94,10:15:00,0,0,14,0,0,0,0,58,25,0,34,25,22
07/05/94,10:20:00,0,0,13,0,0,0,0,58,25,0,24,38,30
07/05/94,10:25:00,0,0,14,0,0,0,0,58,25,0,31,23,29
07/05/94,10:30:00,0,0,0,0,0,0,0,58,25,0,29,34,22
07/05/94,10:35:00,0,0,12,0,0,0,0,58,25,0,29,26,34
07/05/94,10:40:00,0,0,0,0,0,0,0,58,25,0,32,30,26
07/05/94,10:45:00,0,0,0,0,0,0,0,58,25,0,26,36,26
07/05/94,10:50:00,0,0,0,0,0,0,0,58,25,0,36,25,33
07/05/94,10:55:00,0,0,0,0,0,0,0,58,25,0,24,39,22
07/05/94,11:00:00,0,0,0,0,0,0,0,58,25,0,37,23,30
07/05/94,11:05:00,0,0,0,0,0,0,0,58,25,0,24,34,30
07/05/94,11:10:00,0,0,0,0,0,0,0,58,25,0,35,29,21
07/05/94,11:15:00,0,0,0,0,0,0,0,58,25,0,24,29,34
07/05/94,11:20:00,0,0,0,0,0,0,0,58,25,0,34,38,26
07/05/94,11:25:00,0,0,0,0,0,0,0,58,25,0,25,23,25
07/05/94,11:30:00,0,0,0,0,0,0,0,58,25,0,32,37,35
07/05/94,11:35:00,0,0,0,0,0,0,0,58,25,0,26,23,22
07/05/94,11:40:00,0,0,0,0,0,0,0,58,28,0,32,33,30
07/05/94,11:45:00,0,0,0,0,0,0,0,58,25,0,29,32,29
07/05/94,11:50:00,0,0,0,0,0,0,0,58,25,0,29,28,22
07/05/94,11:55:00,0,0,0,0,0,0,0,58,25,0,31,37,32
07/05/94,12:00:00,0,0,0,0,0,0,0,58,25,0,27,25,28
07/05/94,12:05:00,0,0,0,0,0,0,0,57,25,0,35,37,25
07/05/94,12:10:00,0,0,0,0,0,0,0,58,25,0,25,24,33
07/05/94,12:15:00,0,0,0,0,0,0,0,57,25,0,36,35,22
07/05/94,12:20:00,0,0,0,0,0,0,0,58,25,0,23,25,30
07/05/94,12:25:00,0,0,0,0,0,0,0,58,43,0,35,30,30
07/05/94,12:30:00,0,0,0,0,0,0,0,58,25,0,24,34,21
07/05/94,12:35:00,0,0,0,0,0,0,0,58,25,0,32,28,35
07/05/94,12:40:00,0,0,0,0,0,0,0,58,25,0,26,37,23
07/05/94,12:45:00,0,0,0,0,0,0,0,58,25,0,29,24,30
07/05/94,12:50:00,0,0,0,0,0,0,0,58,25,0,31,38,30
07/05/94,12:55:00,0,0,0,0,0,0,0,58,25,0,27,23,22
07/05/94,13:00:00,0,0,0,0,0,0,0,58,25,0,35,35,32
07/05/94,13:05:00,0,0,0,0,0,0,0,58,25,0,25,26,27
07/05/94,13:10:00,0,0,0,0,0,0,0,58,43,0,36,31,24
07/05/94,13:15:00,0,0,0,0,0,0,0,58,25,0,23,34,34
07/05/94,13:20:00,0,0,0,0,0,0,0,58,25,0,35,27,25
07/05/94,13:25:00,0,0,0,0,0,0,0,58,25,0,24,38,26
07/05/94,13:30:00,0,0,0,0,0,0,0,58,25,0,31,24,33
07/05/94,13:35:00,0,0,0,0,0,0,0,58,25,0,28,37,21
07/05/94,13:40:00,0,0,0,0,0,0,0,58,25,0,29,24,31
07/05/94,13:45:00,0,0,0,0,0,0,0,58,25,0,32,32,29
07/05/94,13:50:00,0,0,0,0,0,0,0,58,25,0,27,30,22
07/05/94,13:55:00,0,0,0,0,0,0,0,58,25,0,35,29,34
07/05/94,14:00:00,0,0,0,0,0,0,0,58,25,0,24,38,26
07/05/94,14:05:00,0,0,0,0,0,0,0,58,25,0,36,24,27
07/05/94,14:10:00,0,0,0,0,0,0,0,58,25,0,24,37,33
07/05/94,14:15:00,0,0,0,0,0,0,0,58,25,0,36,23,22
07/05/94,14:20:00,0,0,0,0,0,0,0,58,25,0,24,32,31
07/05/94,14:25:00,0,0,0,0,0,0,0,58,25,0,33,33,29
07/05/94,14:30:00,0,0,13,0,0,0,0,58,25,0,25,27,21
07/05/94,14:35:00,0,0,17,0,0,0,0,58,25,0,32,38,34
07/05/94,14:40:00,0,0,22,0,0,0,0,58,26,0,26,23,24
07/05/94,14:45:00,0,0,16,0,0,0,0,58,25,0,32,35,29
07/05/94,14:50:00,0,0,18,0,0,0,0,58,25,0,26,25,31
07/05/94,14:55:00,0,0,17,0,0,0,0,58,25,0,31,32,22
07/05/94,15:00:00,0,0,16,0,0,0,0,58,25,0,30,34,31
07/05/94,15:05:00,0,0,17,0,0,0,0,58,25,0,28,27,29
07/05/94,15:10:00,0,0,16,0,0,0,0,58,25,0,33,38,22
07/05/94,15:15:00,0,0,19,0,0,0,0,58,25,0,26,25,35
07/05/94,15:20:00,0,0,21,0,0,0,0,58,25,0,35,36,24
07/05/94,15:25:00,0,0,14,0,0,0,0,58,25,0,25,23,26
07/05/94,15:30:00,0,0,14,0,0,0,0,58,25,0,38,33,34
07/05/94,15:35:00,0,0,11,0,0,0,0,58,25,0,23,29,23
07/05/94,15:40:00,0,0,18,0,0,0,0,58,25,0,34,28,32
07/05/94,15:45:00,0,0,16,0,0,0,0,58,25,0,25,37,29
07/05/94,15:50:00,0,0,14,0,0,0,0,58,25,0,32,26,22
07/05/94,15:55:00,0,0,9,0,0,0,0,58,25,0,28,38,33
07/05/94,16:00:00,0,0,0,0,0,0,0,58,25,0,28,23,26
07/05/94,16:05:00,0,0,0,0,0,0,0,58,25,0,33,35,25
07/05/94,16:10:00,0,0,0,0,0,0,0,58,25,0,26,25,33
07/05/94,16:15:00,0,0,0,0,0,0,0,58,25,0,36,32,22
07/05/94,16:20:00,0,0,0,0,0,0,0,58,25,0,24,33,32
07/05/94,16:25:00,0,0,0,0,0,0,0,58,25,0,37,28,29
07/05/94,16:30:00,0,0,14,0,0,0,0,58,25,0,23,37,21
07/05/94,16:35:00,0,0,11,0,0,0,0,58,25,0,34,25,34
07/05/94,16:40:00,0,0,0,0,0,0,0,58,25,0,25,37,24
07/05/94,16:45:00,0,0,0,0,0,0,0,58,25,0,32,23,26
07/05/94,16:50:00,0,0,16,0,0,0,0,58,25,0,28,32,33
07/05/94,16:55:00,0,0,16,0,0,0,0,58,25,0,29,32,22
07/05/94,17:00:00,10,0,24,0,0,0,0,58,25,0,30,28,31
07/05/94,17:05:00,1,0,21,0,0,0,0,57,25,0,27,37,28
07/05/94,17:10:00,0,0,17,0,0,0,0,58,25,0,31,24,20
07/05/94,17:15:00,3,0,19,0,0,0,0,58,25,0,27,36,33
07/05/94,17:20:00,0,0,12,0,0,0,0,58,25,0,31,23,23
07/05/94,17:25:00,0,0,0,0,0,0,0,58,25,0,28,33,27
07/05/94,17:30:00,0,0,0,0,0,0,0,57,25,0,31,27,31
07/05/94,17:35:00,0,0,0,0,0,0,0,58,25,0,26,29,23
07/05/94,17:40:00,0,0,0,0,0,0,0,58,43,0,33,36,29
07/05/94,17:45:00,0,0,14,0,0,0,0,58,25,0,26,26,30
07/05/94,17:50:00,0,0,0,0,0,0,0,58,25,0,34,39,21
07/05/94,17:55:00,0,0,16,0,0,0,0,58,25,0,25,23,34
07/05/94,18:00:00,7,0,18,0,0,0,0,58,25,0,37,35,26
07/05/94,18:05:00,0,0,15,0,0,0,0,58,25,0,23,25,22
07/05/94,18:10:00,0,0,13,0,0,0,0,58,25,0,35,32,35
07/05/94,18:15:00,0,0,16,0,0,0,0,58,25,0,24,32,23
07/05/94,18:20:00,1,0,17,0,0,0,0,58,25,0,32,28,32
07/05/94,18:25:00,0,0,11,0,0,0,0,58,44,0,26,38,29
07/05/94,18:30:00,0,0,17,0,0,0,0,58,25,0,31,24,22
07/05/94,18:35:00,17,0,28,0,0,0,0,58,25,0,30,36,32
07/05/94,18:40:00,7,0,27,0,0,0,0,58,25,0,26,23,25
07/05/94,18:45:00,7,0,23,0,0,0,0,57,25,0,32,35,23
07/05/94,18:50:00,8,0,21,0,0,0,0,58,25,0,25,22,32
07/05/94,18:55:00,3,0,24,0,0,0,0,58,25,0,34,32,20
07/05/94,19:00:00,1,0,18,0,0,0,0,58,25,0,22,27,27
07/05/94,19:05:00,0,0,14,0,0,0,0,58,25,0,34,29,31
07/05/94,19:10:00,0,0,14,0,0,0,0,58,25,0,23,34,20
07/05/94,19:15:00,0,0,17,0,0,0,0,58,25,0,31,26,33
07/05/94,19:20:00,0,0,16,0,0,0,0,58,25,0,27,38,25
07/05/94,19:25:00,0,0,13,0,0,0,0,58,25,0,29,23,23
07/05/94,19:30:00,0,0,15,0,0,0,0,58,25,0,30,36,33
07/05/94,19:35:00,0,0,0,0,0,0,0,58,25,0,26,23,24
07/05/94,19:40:00,0,0,0,0,0,0,0,58,25,0,35,33,27
07/05/94,19:45:00,0,0,0,0,0,0,0,58,25,0,25,28,31
07/05/94,19:50:00,0,0,0,0,0,0,0,58,25,0,36,30,22
07/05/94,19:55:00,0,0,0,0,0,0,0,58,27,0,23,37,31
07/05/94,20:00:00,0,0,0,0,0,0,0,58,25,0,35,25,29
07/05/94,20:05:00,0,0,14,0,0,0,0,58,25,0,24,39,21
07/05/94,20:10:00,0,0,0,0,0,0,0,58,25,0,32,23,35
07/05/94,20:15:00,0,0,0,0,0,0,0,58,25,0,27,35,24
07/05/94,20:20:00,0,0,0,0,0,0,0,58,25,0,30,26,26
07/05/94,20:25:00,0,0,0,0,0,0,0,58,25,0,31,30,32
07/05/94,20:30:00,0,0,0,0,0,0,0,58,25,0,27,34,22
07/05/94,20:35:00,0,0,0,0,0,0,0,58,25,0,34,26,33
07/05/94,20:40:00,3,0,20,0,0,0,0,58,37,0,25,39,28
07/05/94,20:45:00,0,0,20,0,0,0,0,58,25,0,35,23,22
07/05/94,20:50:00,4,0,25,0,0,0,0,58,25,0,24,34,33
07/05/94,20:55:00,7,0,20,0,0,0,0,57,25,0,36,25,23
07/05/94,21:00:00,0,0,17,0,0,0,0,58,25,0,23,31,26
07/05/94,21:05:00,4,0,19,0,0,0,0,58,25,0,35,33,32
07/05/94,21:10:00,0,0,13,0,0,0,0,58,25,0,24,26,24
07/05/94,21:15:00,0,0,14,0,0,0,0,58,25,0,36,38,29
07/05/94,21:20:00,4,0,27,0,0,0,0,58,25,0,24,24,30
07/05/94,21:25:00,17,0,28,0,0,0,0,58,25,0,35,36,20
07/05/94,21:30:00,18,0,27,0,0,0,0,57,25,0,22,22,29
07/05/94,21:35:00,7,0,24,0,0,0,0,58,25,0,32,32,26
07/05/94,21:40:00,4,0,19,0,0,0,0,57,25,0,22,23,20
07/05/94,21:45:00,6,0,23,0,0,0,0,58,25,0,31,31,32
07/05/94,21:50:00,5,0,20,0,0,0,0,57,25,0,24,27,21
07/05/94,21:55:00,0,0,14,0,0,0,0,58,25,0,30,28,27
07/05/94,22:00:00,7,0,20,0,0,0,0,58,25,0,27,35,31
07/05/94,22:05:00,5,0,14,0,0,0,0,58,25,0,27,25,23
07/05/94,22:10:00,0,0,13,0,0,0,0,58,25,0,33,37,29
07/05/94,22:15:00,0,0,13,0,0,0,0,58,25,0,24,22,29
07/05/94,22:20:00,0,0,15,0,0,0,0,58,25,0,35,35,21
07/05/94,22:25:00,0,0,25,0,0,0,0,58,25,0,23,24,32
07/05/94,22:30:00,4,0,17,0,0,0,0,58,25,0,35,31,26
07/05/94,22:35:00,18,0,29,0,0,0,0,58,25,0,22,30,22
07/05/94,22:40:00,13,0,25,0,0,0,0,58,25,0,32,28,32
07/05/94,22:45:00,13,0,25,0,0,0,0,58,25,0,22,31,19
07/05/94,22:50:00,10,0,22,0,0,0,0,58,25,0,28,27,30
07/05/94,22:55:00,0,0,0,0,0,0,0,58,25,0,28,36,26
07/05/94,23:00:00,0,0,0,0,0,0,0,58,25,0,27,25,21
07/05/94,23:05:00,0,0,9,0,0,0,0,58,25,0,34,37,32
07/05/94,23:10:00,25,0,0,0,0,0,0,58,25,0,24,22,23
07/05/94,23:15:00,12,0,2,0,0,0,0,58,25,0,32,35,23
07/05/94,23:20:00,0,0,2,0,0,0,0,58,25,0,24,22,30
07/05/94,23:25:00,2,0,0,0,0,0,0,58,25,0,35,34,20
07/05/94,23:30:00,0,2,0,0,0,0,0,58,25,0,23,25,31
07/05/94,23:35:00,0,0,1,0,0,0,0,59,25,0,34,31,27
07/05/94,23:40:00,0,2,0,0,0,0,0,58,57,0,23,29,21
07/05/94,23:45:00,7,10,0,0,0,0,0,58,25,0,31,29,33
07/05/94,23:50:00,13,0,1,0,0,0,0,59,25,0,25,34,23
07/05/94,23:55:00,3,0,6,0,0,0,0,58,25,0,29,26,26
07/06/94,00:00:00,1,0,6,0,0,0,0,58,25,0,29,37,32
